Regional Weather Roundup
Issued by NWS Goodland, KS

Home | Current Version | Previous Version | Text Only | Print | Product List | Glossary On
Versions: 1 2 3 4 5 6 7 8 9 10 11 12 13 14 15 16 17 18 19 20 21 22 23 24 25 26 27 28 29 30 31 32 33 34 35 36 37 38 39 40 41 42 43 44 45 46 47 48 49 50
000
ASUS43 KGLD 302308
RWRGLD

GOODLAND FORECAST AREA HOURLY WEATHER ROUNDUP
NATIONAL WEATHER SERVICE GOODLAND KS
500 PM MDT WED JUL 30 2014

...OFFICIAL OBSERVATIONS...

CITY           SKY/WX    TMP DP  RH WIND       PRES   REMARKS
GOODLAND KS    CLOUDY    72  54  53 N3        30.25F
HILL CITY KS   MOSUNNY   81  51  35 VRB7      30.16F
IMPERIAL NEB   PTSUNNY   79  55  43 N7        30.21F
MCCOOK NEB     MOSUNNY   80  53  39 NE3       30.18S
AKRON CO       CLOUDY    63  55  75 SW10      30.31F
BURLINGTON CO  CLOUDY    68  52  56 E5        30.28F
LIMON CO       CLOUDY    61  53  75 E8        30.34F
$$

...UNOFFICIAL OBSERVATIONS...

CITY           SKY/WX    TMP DP  RH WIND       PRES   REMARKS
COLBY KS       SUNNY     73  59  60 S5        30.22F
GOVE KS          N/A     76  32  20 MISG        N/A
LENORA KS        N/A     79  32  18 MISG        N/A
NORTON KS      MOSUNNY   79  46  31 E5        30.15F
OBERLIN KS     FAIR      81  50  34 W5        30.18F
SHARON SPRINGS   N/A     70  57  62 NE6         N/A
ST FRANCIS KS  PTSUNNY   72  52  49 W5        30.24S
TRIBUNE KS     PTSUNNY   66 N/A N/A NE13      30.27S
WAKEENEY KS      N/A     77  48  35 MISG        N/A
TRENTON NEB      N/A     77  32  19 CALM        N/A
KIT CARSON CO    N/A     66  53  63 NE5G13      N/A
WRAY CO          N/A     70  55  60 SW7       30.25F
YUMA CO          N/A     68  55  62 SW5         N/A
$$



USA.gov is the U.S. government's official web portal to all federal, state and local government web resources and services.